Regional Weather Roundup
Issued by NWS

Home | Current Version | Previous Version | Text Only | Print | Product List | Glossary Off
Versions: 1 2 3 4 5 6 7 8 9 10 11 12 13 14 15 16 17 18 19 20 21 22 23 24 25 26 27 28 29 30 31 32 33 34 35 36 37 38 39 40 41 42 43 44 45 46 47 48 49 50

000
ASUS43 KLOT 230300
RWRIL

ILLINOIS REGIONAL WEATHER ROUNDUP
NATIONAL WEATHER SERVICE CHICAGO/ROMEOVILLE IL
1000 PM CDT FRI AUG 22 2014

NOTE: "FAIR" INDICATES FEW OR NO CLOUDS BELOW 12,000 FEET WITH NO
SIGNIFICANT WEATHER AND/OR OBSTRUCTIONS TO VISIBILITY.

* THESE STATIONS ARE NOT UNDER NWS QUALITY CONTROL. THEY ALSO MAY NOT
  REPORT WEATHER SUCH AS PRECIPITATION OR FOG.

ILZ001-002-007-009-015-016-024-230400-
NORTHWEST ILLINOIS

CITY           SKY/WX    TMP DP  RH WIND       PRES   REMARKS
MOLINE         CLEAR     74  72  93 SE3       29.96S
STERLING*      MOCLDY    77  73  88 CALM      29.97S
$$

ILZ003-004-008-010-011-017-018-230400-
NORTH CENTRAL ILLINOIS

CITY           SKY/WX    TMP DP  RH WIND       PRES   REMARKS
ROCKFORD       PTCLDY    76  73  91 CALM      29.99R
ROCHELLE*      MOCLDY    74  72  95 CALM      29.99R FOG
$$

ILZ005-006-012>014-019>023-230400-
NORTHEAST ILLINOIS

CITY           SKY/WX    TMP DP  RH WIND       PRES   REMARKS
CHICAGO-OHARE  MOCLDY    79  70  74 CALM      29.98R HX  82
CHICAGO-MIDWAY MOCLDY    82  75  79 S3        29.98R HX  89
AURORA         PTCLDY    75  71  87 CALM      29.99R
WAUKEGAN       CLOUDY    73  71  93 CALM      29.99R FOG
DUPAGE AIRPORT CLOUDY    77  73  87 CALM      29.99R
WHEELING       PTCLDY    77  73  87 CALM      30.00R
NORTHERLY ISL    N/A     74  71  91 CALM        N/A
$$

LMZ740>746-230400-
SOUTHERN LAKE MICHIGAN

STATION/POSITION SKY/WX   TEMP    WIND        PRES    VSBY  WAVE
                          AIR SEA DIR/SP/G                  HT/PER
                          (F)     (DEG/KT/KT) (MB)    (MI)  (FT/S)
SOUTHERN BUOY              71 71   20/  4/  4 1014.9R         0
WAUKEGAN HARBOR            73      40/  2/  4   N/A
HARRISON CRIB              74     100/  6/  7   N/A
BURNHAM HARBOR             74      CALM  /  3   N/A
CALUMET HARBOR             79                 1013.9R
MICHIGAN CITY              78     190/  2/  2   N/A
MICHIGAN CITY 6N           76 75   60/  4/  8   N/A           0
ST. JOSEPH                 74 72   50/  4/  4   N/A           0
$$

ILZ025>027-034>036-040-047-049-050-058-095>099-230400-
WEST-CENTRAL ILLINOIS

CITY           SKY/WX    TMP DP  RH WIND       PRES   REMARKS
QUINCY         CLEAR     79  76  90 E7        29.96R HX  83
MACOMB*        PTCLDY    76  75  99 CALM      29.99R FOG
$$

ILZ028>032-037-038-041>044-048-051>054-059>061-230400-
CENTRAL ILLINOIS

CITY           SKY/WX    TMP DP  RH WIND       PRES   REMARKS
DECATUR        MOCLDY    79  76  90 SE3       29.99S HX  83
PEORIA         PTCLDY    79  74  84 E3        29.98R HX  82
SPRINGFIELD    PTCLDY    79  77  94 CALM      29.97R HX  83
TAYLORVILLE    NOT AVBL
$$

ILZ033-039-045-046-055>057-062-063-230400-
EAST-CENTRAL ILLINOIS

CITY           SKY/WX    TMP DP  RH WIND       PRES   REMARKS
CHAMPAIGN      CLEAR     75  73  93 E6        30.01R
MATTOON        PTCLDY    78  76  93 CALM      29.99R HX  81
$$

ILZ079-100>102-230400-
SOUTHWEST ILLINOIS

CITY           SKY/WX    TMP DP  RH WIND       PRES   REMARKS
BELLEVILLE     PTCLDY    81  81  99 E2        29.94R HX  92
CAHOKIA*       PTCLDY    81  79  94 E3        29.94R HX  90
$$

ILZ064>066-069>071-074>076-080>082-084>086-088>090-092>094-230400-
SOUTH-CENTRAL ILLINOIS

CITY           SKY/WX    TMP DP  RH WIND       PRES   REMARKS
CARBONDALE     MOCLDY    81  76  84 SE5       29.96R HX  87
MT. VERNON     PTCLDY    79  73  83 CALM      29.98S HX  82
SALEM*         CLEAR     82  80  91 E3        29.98R HX  94
$$

ILZ067-068-072-073-078-083-087-091-230400-
SOUTHEAST ILLINOIS

CITY           SKY/WX    TMP DP  RH WIND       PRES   REMARKS
LAWRENCEVILLE  CLOUDY    80  78  94 NE5       30.00R THUNDER FOG
HARRISBURG*    MOCLDY    79  78  97 CALM      29.99R HX  83
ROBINSON*      MOCLDY    80  78  95 CALM      30.00R FOG     HX  85
$$

ABBREVIATIONS USED IN REMARKS
   TC - TEMPERATURE IN CELSIUS
  WCI - WIND CHILL INDEX
   HX - HEAT INDEX
  VSB - VISIBILITY
$$




USA.gov is the U.S. government's official web portal to all federal, state and local government web resources and services.